Satellite: ORSTED
Catalog number: 25635
Epoch time:      103041.49483399
Element set:     828 
Inclination:       96.4497 deg
RA of node:        29.6596 deg
Eccentricity:    0.0145707
Arg of perigee:   355.3727 deg
Mean anomaly:       4.6114 deg
Mean motion:   14.44822187 rev/day
Decay rate:    1.1330E-005 rev/day^2
Epoch rev:           20877
Checksum:              329

Satellite: SUNSAT
Catalog number: 25636
Epoch time:      103038.55291413
Element set:     662 
Inclination:       96.4518 deg
RA of node:        26.1016 deg
Eccentricity:    0.0149921
Arg of perigee:    10.9325 deg
Mean anomaly:     349.5068 deg
Mean motion:   14.42941244 rev/day
Decay rate:    4.9099E-006 rev/day^2
Epoch rev:           20822
Checksum:              303

Satellite: UOSAT 12
Catalog number: 25693
Epoch time:      103042.37006495
Element set:     695 
Inclination:       64.5598 deg
RA of node:        32.8192 deg
Eccentricity:    0.0019506
Arg of perigee:   315.6413 deg
Mean anomaly:      44.3134 deg
Mean motion:   14.76379184 rev/day
Decay rate:    5.2599E-006 rev/day^2
Epoch rev:           20519
Checksum:              327

Satellite: FENGYUN 1C
Catalog number: 25730
Epoch time:      103042.42390534
Element set:     764 
Inclination:       98.6342 deg
RA of node:        67.0921 deg
Eccentricity:    0.0014735
Arg of perigee:    26.6928 deg
Mean anomaly:     333.4999 deg
Mean motion:   14.11732917 rev/day
Decay rate:   -1.3000E-007 rev/day^2
Epoch rev:           19362
Checksum:              301

Satellite: ASTRA 1H
Catalog number: 25785
Epoch time:      103041.00000000
Element set:     371 
Inclination:        0.0122 deg
RA of node:       319.8851 deg
Eccentricity:    0.0002995
Arg of perigee:    65.1991 deg
Mean anomaly:     133.7806 deg
Mean motion:    1.00273184 rev/day
Decay rate:    1.2900E-006 rev/day^2
Epoch rev:            1341
Checksum:              233

Satellite: TERRA
Catalog number: 25994
Epoch time:      103042.23987262
Element set:     686 
Inclination:       98.2008 deg
RA of node:       118.5739 deg
Eccentricity:    0.0000858
Arg of perigee:    85.9249 deg
Mean anomaly:     274.2052 deg
Mean motion:   14.57123108 rev/day
Decay rate:    6.3900E-006 rev/day^2
Epoch rev:           16760
Checksum:              324

Satellite: JAWSAT
Catalog number: 26061
Epoch time:      103042.20280412
Element set:     762 
Inclination:      100.2089 deg
RA of node:        97.9049 deg
Eccentricity:    0.0034821
Arg of perigee:   300.6547 deg
Mean anomaly:      59.1203 deg
Mean motion:   14.37815767 rev/day
Decay rate:    5.8099E-006 rev/day^2
Epoch rev:           15947
Checksum:              300

Satellite: OPAL
Catalog number: 26063
Epoch time:      103042.16695180
Element set:     718 
Inclination:      100.2140 deg
RA of node:        95.4043 deg
Eccentricity:    0.0037046
Arg of perigee:   308.1830 deg
Mean anomaly:      51.6010 deg
Mean motion:   14.35478022 rev/day
Decay rate:    1.6200E-006 rev/day^2
Epoch rev:           15932
Checksum:              246

Satellite: ASUSAT
Catalog number: 26065
Epoch time:      103041.56636998
Element set:     730 
Inclination:      100.2112 deg
RA of node:        94.8406 deg
Eccentricity:    0.0037020
Arg of perigee:   310.8914 deg
Mean anomaly:      48.9062 deg
Mean motion:   14.35505115 rev/day
Decay rate:    1.8700E-006 rev/day^2
Epoch rev:           15923
Checksum:              274

Satellite: GOES 11
Catalog number: 26352
Epoch time:      103040.34226223
Element set:     16 
Inclination:        0.1169 deg
RA of node:       104.3657 deg
Eccentricity:    0.0003610
Arg of perigee:   219.8219 deg
Mean anomaly:     184.8358 deg
Mean motion:    1.00264164 rev/day
Decay rate:   -2.6000E-007 rev/day^2
Epoch rev:            1014
Checksum:              236

Satellite: EUTELSAT W4
Catalog number: 26369
Epoch time:      103041.86777200
Element set:     351 
Inclination:        0.0309 deg
RA of node:        18.7813 deg
Eccentricity:    0.0003068
Arg of perigee:   301.5196 deg
Mean anomaly:     168.7050 deg
Mean motion:    1.00274867 rev/day
Decay rate:    1.6499E-006 rev/day^2
Epoch rev:             997
Checksum:              297

Satellite: FENGYUN 2B
Catalog number: 26382
Epoch time:      103041.94694125
Element set:     791 
Inclination:        0.5780 deg
RA of node:       286.7464 deg
Eccentricity:    0.0001621
Arg of perigee:   226.8711 deg
Mean anomaly:      72.1141 deg
Mean motion:    1.00280181 rev/day
Decay rate:   -3.1899E-006 rev/day^2
Epoch rev:             963
Checksum:              283

Satellite: EUTELSAT W1
Catalog number: 26487
Epoch time:      103041.87511575
Element set:     352 
Inclination:        0.0199 deg
RA of node:       250.4398 deg
Eccentricity:    0.0004405
Arg of perigee:    25.1047 deg
Mean anomaly:     189.9982 deg
Mean motion:    1.00274916 rev/day
Decay rate:    7.7999E-007 rev/day^2
Epoch rev:             894
Checksum:              428

Satellite: ASTRA 2B
Catalog number: 26494
Epoch time:      103041.00000000
Element set:     254 
Inclination:        0.0178 deg
RA of node:       354.5658 deg
Eccentricity:    0.0005000
Arg of perigee:   302.8402 deg
Mean anomaly:     230.4186 deg
Mean motion:    1.00276704 rev/day
Decay rate:    1.5900E-006 rev/day^2
Epoch rev:             883
Checksum:              222

Satellite: NOAA 16
Catalog number: 26536
Epoch time:      103041.99924840
Element set:     203 
Inclination:       98.9016 deg
RA of node:       350.3391 deg
Eccentricity:    0.0010213
Arg of perigee:   331.4349 deg
Mean anomaly:      28.6288 deg
Mean motion:   14.11898953 rev/day
Decay rate:    2.0600E-006 rev/day^2
Epoch rev:           12308
Checksum:              297

Satellite: SAUDISAT 1A
Catalog number: 26545
Epoch time:      103042.04017984
Element set:     410 
Inclination:       64.5589 deg
RA of node:        55.0619 deg
Eccentricity:    0.0052613
Arg of perigee:   239.9540 deg
Mean anomaly:     119.6353 deg
Mean motion:   14.78960785 rev/day
Decay rate:    1.4029E-005 rev/day^2
Epoch rev:           12810
Checksum:              306

Satellite: UNISAT
Catalog number: 26547
Epoch time:      103040.13808769
Element set:     428 
Inclination:       64.5575 deg
RA of node:        63.1785 deg
Eccentricity:    0.0059876
Arg of perigee:   242.6618 deg
Mean anomaly:     116.8385 deg
Mean motion:   14.79702735 rev/day
Decay rate:    2.0569E-005 rev/day^2
Epoch rev:           12779
Checksum:              351

Satellite: TIUNGSAT 1
Catalog number: 26548
Epoch time:      103041.12912647
Element set:     413 
Inclination:       64.5582 deg
RA of node:        50.8446 deg
Eccentricity:    0.0046004
Arg of perigee:   239.1194 deg
Mean anomaly:     120.5369 deg
Mean motion:   14.81239637 rev/day
Decay rate:    1.7610E-005 rev/day^2
Epoch rev:           12811
Checksum:              383

Satellite: SAUDISAT 1B
Catalog number: 26549
Epoch time:      103042.40918573
Element set:     689 
Inclination:       64.5526 deg
RA of node:        58.0050 deg
Eccentricity:    0.0057178
Arg of perigee:   239.8864 deg
Mean anomaly:     119.6565 deg
Mean motion:   14.77899243 rev/day
Decay rate:    1.2309E-005 rev/day^2
Epoch rev:           12808
Checksum:              442

Satellite: AMSAT OSCAR 40
Catalog number: 26609
Epoch time:      103042.26455231
Element set:     310 
Inclination:        8.0482 deg
RA of node:        65.4048 deg
Eccentricity:    0.7940113
Arg of perigee:   142.6388 deg
Mean anomaly:     315.2305 deg
Mean motion:    1.25596326 rev/day
Decay rate:   -6.7000E-007 rev/day^2
Epoch rev:            1049
Checksum:              271

Satellite: GOES 12
Catalog number: 26871
Epoch time:      103038.59289693
Element set:     810 
Inclination:        0.3528 deg
RA of node:       276.6744 deg
Eccentricity:    0.0003201
Arg of perigee:   358.7723 deg
Mean anomaly:     337.2121 deg
Mean motion:    1.00363477 rev/day
Decay rate:   -1.4099E-006 rev/day^2
Epoch rev:             572
Checksum:              299

Satellite: PCSAT
Catalog number: 26931
Epoch time:      103041.54699581
Element set:     398 
Inclination:       67.0478 deg
RA of node:       276.2669 deg
Eccentricity:    0.0004973
Arg of perigee:   262.9850 deg
Mean anomaly:      97.0684 deg
Mean motion:   14.29111201 rev/day
Decay rate:    2.1299E-006 rev/day^2
Epoch rev:            7120
Checksum:              326

Satellite: SAPPHIRE
Catalog number: 26932
Epoch time:      103041.87592503
Element set:     393 
Inclination:       67.0555 deg
RA of node:       275.1270 deg
Eccentricity:    0.0005191
Arg of perigee:   240.1135 deg
Mean anomaly:     119.9449 deg
Mean motion:   14.29291261 rev/day
Decay rate:    9.7999E-007 rev/day^2
Epoch rev:            7127
Checksum:              319

Satellite: ENVISAT
Catalog number: 27386
Epoch time:      103042.34944292
Element set:     929 
Inclination:       98.5459 deg
RA of node:       111.0020 deg
Eccentricity:    0.0000984
Arg of perigee:   101.8827 deg
Mean anomaly:     258.2466 deg
Mean motion:   14.32256141 rev/day
Decay rate:    2.1299E-006 rev/day^2
Epoch rev:            4971
Checksum:              308

Satellite: IDEFIX/ARIANE 
Catalog number: 27422
Epoch time:      103042.24513088
Element set:     230 
Inclination:       98.6954 deg
RA of node:       121.4806 deg
Eccentricity:    0.0012823
Arg of perigee:   167.7988 deg
Mean anomaly:     192.3505 deg
Mean motion:   14.27965764 rev/day
Decay rate:    2.6099E-006 rev/day^2
Epoch rev:            4041
Checksum:              318

